TimeEST,TemperatureF,Dew PointF,Humidity,Sea Level PressureIn,VisibilityMPH,Wind Direction,Wind SpeedMPH,Gust SpeedMPH,PrecipitationIn,Events,Conditions,WindDirDegrees,DateUTC
12:53 AM,35.1,30.0,82,30.13,-9999.0,Calm,Calm,-,N/A,,Unknown,0,2012-11-25 05:53:00
1:53 AM,35.1,30.9,85,30.13,-9999.0,North,3.5,-,N/A,,Unknown,360,2012-11-25 06:53:00
2:53 AM,32.0,27.0,82,30.13,-9999.0,Calm,Calm,-,N/A,,Unknown,0,2012-11-25 07:53:00
3:53 AM,30.9,28.0,89,30.14,-9999.0,Calm,Calm,-,N/A,,Unknown,0,2012-11-25 08:53:00
4:53 AM,30.0,26.1,85,30.14,-9999.0,Calm,Calm,-,N/A,,Unknown,0,2012-11-25 09:53:00
5:53 AM,28.9,26.1,89,30.16,-9999.0,Calm,Calm,-,N/A,,Unknown,0,2012-11-25 10:53:00
6:53 AM,28.9,25.0,85,30.17,-9999.0,Calm,Calm,-,N/A,,Unknown,0,2012-11-25 11:53:00
7:53 AM,30.0,28.0,92,30.19,-9999.0,Calm,Calm,-,N/A,,Unknown,0,2012-11-25 12:53:00
8:53 AM,42.1,30.9,65,30.22,-9999.0,Calm,Calm,-,N/A,,Unknown,0,2012-11-25 13:53:00
9:53 AM,50.0,24.1,36,30.23,-9999.0,Calm,Calm,-,N/A,,Unknown,0,2012-11-25 14:53:00
10:53 AM,54.0,23.0,30,30.22,-9999.0,Calm,Calm,-,N/A,,Unknown,0,2012-11-25 15:53:00
11:53 AM,57.0,21.9,26,30.20,-9999.0,WSW,3.5,-,N/A,,Unknown,250,2012-11-25 16:53:00
12:53 PM,61.0,21.9,22,30.17,-9999.0,Variable,3.5,-,N/A,,Unknown,0,2012-11-25 17:53:00
1:53 PM,64.0,19.9,18,30.14,-9999.0,NW,5.8,-,N/A,,Unknown,320,2012-11-25 18:53:00
2:53 PM,64.9,21.0,19,30.12,-9999.0,West,6.9,-,N/A,,Unknown,280,2012-11-25 19:53:00
3:53 PM,64.0,21.0,19,30.12,-9999.0,WNW,4.6,-,N/A,,Unknown,300,2012-11-25 20:53:00
4:53 PM,60.1,32.0,35,30.13,-9999.0,SW,9.2,-,N/A,,Unknown,220,2012-11-25 21:53:00
5:53 PM,52.0,34.0,50,30.14,-9999.0,Calm,Calm,-,N/A,,Unknown,0,2012-11-25 22:53:00
6:53 PM,44.1,35.1,71,30.15,-9999.0,Calm,Calm,-,N/A,,Unknown,0,2012-11-25 23:53:00
7:53 PM,42.1,35.1,76,30.17,-9999.0,Calm,Calm,-,N/A,,Unknown,0,2012-11-26 00:53:00
8:53 PM,39.9,36.0,86,30.17,-9999.0,Calm,Calm,-,N/A,,Unknown,0,2012-11-26 01:53:00
9:53 PM,37.0,34.0,89,30.18,-9999.0,Calm,Calm,-,N/A,,Unknown,0,2012-11-26 02:53:00
10:53 PM,37.0,33.1,86,30.18,-9999.0,Calm,Calm,-,N/A,,Unknown,0,2012-11-26 03:53:00
11:53 PM,35.1,32.0,89,30.18,-9999.0,Calm,Calm,-,N/A,,Unknown,0,2012-11-26 04:53:00